Time,TemperatureF,DewpointF,PressureIn,WindDirection,WindDirectionDegrees,WindSpeedMPH,WindSpeedGustMPH,Humidity,HourlyPrecipIn,Conditions,Clouds,dailyrainin,SoftwareType,DateUTC
2013-03-21 00:00:00,38.7,34.0,0.00,North,0,0.0,0.0,83,0.00,,,-99.99,pyweather 0.1,2013-03-21 07:00:00,
2013-03-21 00:08:00,38.7,34.0,0.00,North,0,0.0,0.0,83,0.00,,,-99.99,pyweather 0.1,2013-03-21 07:08:00,
2013-03-21 00:16:00,38.7,34.2,0.00,North,0,0.0,0.0,84,0.00,,,-99.99,pyweather 0.1,2013-03-21 07:16:00,
2013-03-21 00:24:00,38.7,34.2,0.00,North,0,0.0,0.0,84,0.00,,,-99.99,pyweather 0.1,2013-03-21 07:24:00,
2013-03-21 00:32:00,38.5,34.1,0.00,North,0,0.0,0.0,84,0.00,,,-99.99,pyweather 0.1,2013-03-21 07:32:00,
2013-03-21 00:40:00,38.3,33.9,0.00,North,0,0.0,0.0,84,0.00,,,-99.99,pyweather 0.1,2013-03-21 07:40:00,
2013-03-21 00:48:00,38.1,33.7,0.00,North,0,0.0,0.0,84,0.00,,,-99.99,pyweather 0.1,2013-03-21 07:48:00,
2013-03-21 01:04:00,38.1,34.0,0.00,North,0,0.0,0.0,85,0.00,,,-99.99,pyweather 0.1,2013-03-21 08:04:00,
2013-03-21 01:12:00,37.9,33.5,0.00,North,0,0.0,0.0,84,0.00,,,-99.99,pyweather 0.1,2013-03-21 08:12:00,
2013-03-21 01:20:00,37.8,33.4,0.00,North,0,0.0,0.0,84,0.00,,,-99.99,pyweather 0.1,2013-03-21 08:20:00,
2013-03-21 01:28:00,37.8,33.4,0.00,North,0,0.0,0.0,84,0.00,,,-99.99,pyweather 0.1,2013-03-21 08:28:00,
2013-03-21 01:36:00,37.6,32.9,0.00,North,0,0.0,0.0,83,0.00,,,-99.99,pyweather 0.1,2013-03-21 08:36:00,
2013-03-21 01:44:00,37.6,32.9,0.00,North,0,0.0,0.0,83,0.00,,,-99.99,pyweather 0.1,2013-03-21 08:44:00,
2013-03-21 01:52:00,37.4,32.7,0.00,North,0,0.0,0.0,83,0.00,,,-99.99,pyweather 0.1,2013-03-21 08:52:00,
2013-03-21 02:00:00,37.4,32.7,0.00,North,0,0.0,0.0,83,0.00,,,-99.99,pyweather 0.1,2013-03-21 09:00:00,
2013-03-21 02:08:00,37.6,32.9,0.00,North,0,0.0,0.0,83,0.00,,,-99.99,pyweather 0.1,2013-03-21 09:08:00,
2013-03-21 02:16:00,37.4,32.7,0.00,North,0,0.0,0.0,83,0.00,,,-99.99,pyweather 0.1,2013-03-21 09:16:00,
2013-03-21 02:24:00,37.4,32.7,0.00,North,0,0.0,0.0,83,0.00,,,-99.99,pyweather 0.1,2013-03-21 09:24:00,
2013-03-21 02:32:00,37.4,32.7,0.00,North,0,0.0,0.0,83,0.00,,,-99.99,pyweather 0.1,2013-03-21 09:32:00,
2013-03-21 02:40:00,37.4,32.7,0.00,North,0,0.0,0.0,83,0.00,,,-99.99,pyweather 0.1,2013-03-21 09:40:00,
2013-03-21 02:48:00,37.2,32.5,0.00,North,0,0.0,0.0,83,0.00,,,-99.99,pyweather 0.1,2013-03-21 09:48:00,
2013-03-21 02:56:00,37.2,32.5,0.00,North,0,0.0,0.0,83,0.00,,,-99.99,pyweather 0.1,2013-03-21 09:56:00,
2013-03-21 03:04:00,37.4,32.4,0.00,North,0,0.0,0.0,82,0.00,,,-99.99,pyweather 0.1,2013-03-21 10:04:00,
2013-03-21 03:12:00,37.2,32.2,0.00,North,0,0.0,0.0,82,0.00,,,-99.99,pyweather 0.1,2013-03-21 10:12:00,
2013-03-21 03:20:00,37.2,32.2,0.00,North,0,0.0,0.0,82,0.00,,,-99.99,pyweather 0.1,2013-03-21 10:20:00,
2013-03-21 03:28:00,37.0,32.4,0.00,North,0,0.0,0.0,83,0.00,,,-99.99,pyweather 0.1,2013-03-21 10:28:00,
2013-03-21 03:36:00,37.0,32.4,0.00,North,0,0.0,0.0,83,0.00,,,-99.99,pyweather 0.1,2013-03-21 10:36:00,
2013-03-21 03:44:00,37.0,32.4,0.00,North,0,0.0,0.0,83,0.00,,,-99.99,pyweather 0.1,2013-03-21 10:44:00,
2013-03-21 03:52:00,37.0,32.4,0.00,North,0,0.0,0.0,83,0.00,,,-99.99,pyweather 0.1,2013-03-21 10:52:00,
2013-03-21 04:00:00,37.0,32.4,0.00,North,0,0.0,0.0,83,0.00,,,-99.99,pyweather 0.1,2013-03-21 11:00:00,
2013-03-21 04:08:00,36.9,32.2,0.00,North,0,0.0,0.0,83,0.00,,,-99.99,pyweather 0.1,2013-03-21 11:08:00,
2013-03-21 04:16:00,37.0,32.4,0.00,North,0,0.0,0.0,83,0.00,,,-99.99,pyweather 0.1,2013-03-21 11:16:00,
2013-03-21 04:24:00,37.2,32.8,0.00,North,0,0.0,0.0,84,0.00,,,-99.99,pyweather 0.1,2013-03-21 11:24:00,
2013-03-21 04:32:00,37.4,32.7,0.00,North,0,0.0,0.0,83,0.00,,,-99.99,pyweather 0.1,2013-03-21 11:32:00,
2013-03-21 04:40:00,37.6,33.2,0.00,North,0,0.0,0.0,84,0.00,,,-99.99,pyweather 0.1,2013-03-21 11:40:00,
2013-03-21 04:48:00,37.9,33.5,0.00,North,0,0.0,0.0,84,0.00,,,-99.99,pyweather 0.1,2013-03-21 11:48:00,
2013-03-21 04:56:00,38.1,33.7,0.00,North,0,0.0,0.0,84,0.00,,,-99.99,pyweather 0.1,2013-03-21 11:56:00,
2013-03-21 05:04:00,38.1,33.7,0.00,North,0,0.0,0.0,84,0.00,,,-99.99,pyweather 0.1,2013-03-21 12:04:00,
2013-03-21 05:12:00,38.3,33.9,0.00,North,0,0.0,0.0,84,0.00,,,-99.99,pyweather 0.1,2013-03-21 12:12:00,
2013-03-21 05:20:00,38.3,33.9,0.00,North,0,0.0,0.0,84,0.00,,,-99.99,pyweather 0.1,2013-03-21 12:20:00,
2013-03-21 05:29:00,38.5,33.8,0.00,North,0,0.0,0.0,83,0.00,,,-99.99,pyweather 0.1,2013-03-21 12:29:00,
2013-03-21 05:37:00,38.3,33.6,0.00,North,0,0.0,0.0,83,0.00,,,-99.99,pyweather 0.1,2013-03-21 12:37:00,
2013-03-21 05:45:00,38.1,33.1,0.00,North,0,0.0,0.0,82,0.00,,,-99.99,pyweather 0.1,2013-03-21 12:45:00,
2013-03-21 05:53:00,38.3,33.0,0.00,North,0,0.0,0.0,81,0.00,,,-99.99,pyweather 0.1,2013-03-21 12:53:00,
2013-03-21 06:01:00,38.3,33.0,0.00,North,0,0.0,0.0,81,0.00,,,-99.99,pyweather 0.1,2013-03-21 13:01:00,
2013-03-21 06:09:00,38.3,33.0,0.00,North,0,0.0,0.0,81,0.00,,,-99.99,pyweather 0.1,2013-03-21 13:09:00,
2013-03-21 06:17:00,38.5,33.2,0.00,North,0,0.0,0.0,81,0.00,,,-99.99,pyweather 0.1,2013-03-21 13:17:00,
2013-03-21 06:25:00,38.7,33.3,0.00,North,0,0.0,0.0,81,0.00,,,-99.99,pyweather 0.1,2013-03-21 13:25:00,
2013-03-21 06:33:00,38.7,33.3,0.00,North,0,0.0,0.0,81,0.00,,,-99.99,pyweather 0.1,2013-03-21 13:33:00,
2013-03-21 06:41:00,38.7,33.0,0.00,North,0,0.0,0.0,80,0.00,,,-99.99,pyweather 0.1,2013-03-21 13:41:00,
2013-03-21 06:49:00,38.8,33.2,0.00,North,0,0.0,0.0,80,0.00,,,-99.99,pyweather 0.1,2013-03-21 13:49:00,
2013-03-21 06:57:00,38.8,32.9,0.00,North,0,0.0,0.0,79,0.00,,,-99.99,pyweather 0.1,2013-03-21 13:57:00,
2013-03-21 07:05:00,38.8,32.9,0.00,North,0,0.0,0.0,79,0.00,,,-99.99,pyweather 0.1,2013-03-21 14:05:00,
2013-03-21 07:13:00,39.0,32.8,0.00,North,0,0.0,0.0,78,0.00,,,-99.99,pyweather 0.1,2013-03-21 14:13:00,
2013-03-21 07:29:00,39.2,32.9,0.00,North,0,0.0,0.0,78,0.00,,,-99.99,pyweather 0.1,2013-03-21 14:29:00,
2013-03-21 07:37:00,39.0,32.8,0.00,North,0,0.0,0.0,78,0.00,,,-99.99,pyweather 0.1,2013-03-21 14:37:00,
2013-03-21 07:45:00,39.2,32.6,0.00,North,0,0.0,0.0,77,0.00,,,-99.99,pyweather 0.1,2013-03-21 14:45:00,
2013-03-21 07:53:00,39.2,32.3,0.00,North,0,0.0,0.0,76,0.00,,,-99.99,pyweather 0.1,2013-03-21 14:53:00,
2013-03-21 08:01:00,39.4,32.5,0.00,North,0,0.0,0.0,76,0.00,,,-99.99,pyweather 0.1,2013-03-21 15:01:00,
2013-03-21 08:09:00,39.4,32.5,0.00,North,0,0.0,0.0,76,0.00,,,-99.99,pyweather 0.1,2013-03-21 15:09:00,
2013-03-21 08:25:00,39.7,32.8,0.00,North,0,0.0,0.0,76,0.00,,,-99.99,pyweather 0.1,2013-03-21 15:25:00,
2013-03-21 08:33:00,39.7,32.5,0.00,North,0,0.0,0.0,75,0.00,,,-99.99,pyweather 0.1,2013-03-21 15:33:00,
2013-03-21 08:41:00,39.9,32.7,0.00,North,0,0.0,0.0,75,0.00,,,-99.99,pyweather 0.1,2013-03-21 15:41:00,
2013-03-21 08:49:00,39.7,32.1,0.00,North,0,0.0,0.0,74,0.00,,,-99.99,pyweather 0.1,2013-03-21 15:49:00,
2013-03-21 08:57:00,39.9,32.3,0.00,North,0,0.0,0.0,74,0.00,,,-99.99,pyweather 0.1,2013-03-21 15:57:00,
2013-03-21 09:05:00,39.9,32.3,0.00,North,0,0.0,0.0,74,0.00,,,-99.99,pyweather 0.1,2013-03-21 16:05:00,
2013-03-21 09:13:00,39.9,32.3,0.00,North,0,0.0,0.0,74,0.00,,,-99.99,pyweather 0.1,2013-03-21 16:13:00,
2013-03-21 09:21:00,40.1,32.5,0.00,North,0,0.0,0.0,74,0.00,,,-99.99,pyweather 0.1,2013-03-21 16:21:00,
2013-03-21 09:29:00,40.3,32.7,0.00,North,0,0.0,0.0,74,0.00,,,-99.99,pyweather 0.1,2013-03-21 16:29:00,
2013-03-21 09:37:00,40.5,32.8,0.00,North,0,0.0,0.0,74,0.00,,,-99.99,pyweather 0.1,2013-03-21 16:37:00,
2013-03-21 09:45:00,40.6,32.3,0.00,North,0,0.0,0.0,72,0.00,,,-99.99,pyweather 0.1,2013-03-21 16:45:00,
2013-03-21 09:54:00,40.6,32.0,0.00,North,0,0.0,0.0,71,0.00,,,-99.99,pyweather 0.1,2013-03-21 16:54:00,
2013-03-21 10:02:00,41.2,32.2,0.00,North,0,0.0,0.0,70,0.00,,,-99.99,pyweather 0.1,2013-03-21 17:02:00,
2013-03-21 10:10:00,41.4,32.3,0.00,North,0,0.0,0.0,70,0.00,,,-99.99,pyweather 0.1,2013-03-21 17:10:00,
2013-03-21 10:18:00,41.5,32.5,0.00,North,0,0.0,0.0,70,0.00,,,-99.99,pyweather 0.1,2013-03-21 17:18:00,
2013-03-21 10:26:00,41.9,32.8,0.00,North,0,0.0,0.0,70,0.00,,,-99.99,pyweather 0.1,2013-03-21 17:26:00,
2013-03-21 10:34:00,42.1,33.0,0.00,North,0,0.0,0.0,70,0.00,,,-99.99,pyweather 0.1,2013-03-21 17:34:00,
2013-03-21 10:42:00,42.1,32.7,0.00,North,0,0.0,0.0,69,0.00,,,-99.99,pyweather 0.1,2013-03-21 17:42:00,
2013-03-21 10:50:00,42.1,31.9,0.00,North,0,0.0,0.0,67,0.00,,,-99.99,pyweather 0.1,2013-03-21 17:50:00,
2013-03-21 10:58:00,42.3,32.1,0.00,North,0,0.0,0.0,67,0.00,,,-99.99,pyweather 0.1,2013-03-21 17:58:00,
2013-03-21 11:06:00,43.0,32.8,0.00,North,0,0.0,0.0,67,0.00,,,-99.99,pyweather 0.1,2013-03-21 18:06:00,
2013-03-21 11:14:00,43.7,32.3,0.00,North,0,0.0,0.0,64,0.00,,,-99.99,pyweather 0.1,2013-03-21 18:14:00,
2013-03-21 11:22:00,44.4,31.4,0.00,North,0,0.0,0.0,60,0.00,,,-99.99,pyweather 0.1,2013-03-21 18:22:00,
2013-03-21 11:30:00,44.8,31.8,0.00,North,0,0.0,0.0,60,0.00,,,-99.99,pyweather 0.1,2013-03-21 18:30:00,
2013-03-21 11:38:00,46.2,32.7,0.00,North,0,0.0,0.0,59,0.00,,,-99.99,pyweather 0.1,2013-03-21 18:38:00,
2013-03-21 11:46:00,48.2,32.8,0.00,North,0,0.0,0.0,55,0.00,,,-99.99,pyweather 0.1,2013-03-21 18:46:00,
2013-03-21 11:54:00,48.9,30.1,0.00,North,0,0.0,0.0,48,0.00,,,-99.99,pyweather 0.1,2013-03-21 18:54:00,
2013-03-21 12:02:00,50.0,30.6,0.00,North,0,0.0,0.0,47,0.00,,,-99.99,pyweather 0.1,2013-03-21 19:02:00,
2013-03-21 12:10:00,49.3,29.9,0.00,North,0,0.0,0.0,47,0.00,,,-99.99,pyweather 0.1,2013-03-21 19:10:00,
2013-03-21 12:18:00,50.2,30.8,0.00,North,0,0.0,0.0,47,0.00,,,-99.99,pyweather 0.1,2013-03-21 19:18:00,
2013-03-21 12:26:00,50.2,29.7,0.00,North,0,0.0,0.0,45,0.00,,,-99.99,pyweather 0.1,2013-03-21 19:26:00,
2013-03-21 12:34:00,50.5,30.5,0.00,North,0,0.0,0.0,46,0.00,,,-99.99,pyweather 0.1,2013-03-21 19:34:00,
2013-03-21 12:50:00,49.5,28.5,0.00,North,0,0.0,0.0,44,0.00,,,-99.99,pyweather 0.1,2013-03-21 19:50:00,
2013-03-21 12:58:00,49.6,29.2,0.00,North,0,0.0,0.0,45,0.00,,,-99.99,pyweather 0.1,2013-03-21 19:58:00,
2013-03-21 13:06:00,49.6,29.7,0.00,North,0,0.0,0.0,46,0.00,,,-99.99,pyweather 0.1,2013-03-21 20:06:00,
2013-03-21 13:14:00,48.9,27.4,0.00,North,0,0.0,0.0,43,0.00,,,-99.99,pyweather 0.1,2013-03-21 20:14:00,
2013-03-21 13:22:00,48.7,29.4,0.00,North,0,0.0,0.0,47,0.00,,,-99.99,pyweather 0.1,2013-03-21 20:22:00,
2013-03-21 13:31:00,48.4,29.1,0.00,North,0,0.0,0.0,47,0.00,,,-99.99,pyweather 0.1,2013-03-21 20:31:00,
2013-03-21 13:39:00,47.8,28.6,0.00,North,0,0.0,0.0,47,0.00,,,-99.99,pyweather 0.1,2013-03-21 20:39:00,
2013-03-21 13:47:00,46.9,26.7,0.00,North,0,0.0,0.0,45,0.00,,,-99.99,pyweather 0.1,2013-03-21 20:47:00,
2013-03-21 13:55:00,46.4,29.8,0.00,North,0,0.0,0.0,52,0.00,,,-99.99,pyweather 0.1,2013-03-21 20:55:00,
2013-03-21 14:03:00,45.1,29.0,0.00,North,0,0.0,0.0,53,0.00,,,-99.99,pyweather 0.1,2013-03-21 21:03:00,
2013-03-21 14:19:00,43.5,30.6,0.00,North,0,0.0,0.0,60,0.00,,,-99.99,pyweather 0.1,2013-03-21 21:19:00,
2013-03-21 14:27:00,43.3,31.6,0.00,North,0,0.0,0.0,63,0.04,,,-99.99,pyweather 0.1,2013-03-21 21:27:00,
2013-03-21 14:35:00,43.2,33.3,0.00,North,0,0.0,0.0,68,0.04,,,-99.99,pyweather 0.1,2013-03-21 21:35:00,
2013-03-21 14:43:00,43.3,34.2,0.00,North,0,0.0,0.0,70,0.04,,,-99.99,pyweather 0.1,2013-03-21 21:43:00,
2013-03-21 14:51:00,43.0,33.9,0.00,North,0,0.0,0.0,70,0.04,,,-99.99,pyweather 0.1,2013-03-21 21:51:00,
2013-03-21 14:59:00,42.8,34.1,0.00,North,0,0.0,0.0,71,0.04,,,-99.99,pyweather 0.1,2013-03-21 21:59:00,
2013-03-21 15:07:00,43.5,35.1,0.00,North,0,0.0,0.0,72,0.04,,,-99.99,pyweather 0.1,2013-03-21 22:07:00,
2013-03-21 15:15:00,43.9,35.1,0.00,North,0,0.0,0.0,71,0.04,,,-99.99,pyweather 0.1,2013-03-21 22:15:00,
2013-03-21 15:23:00,43.7,34.6,0.00,North,0,0.0,0.0,70,0.00,,,-99.99,pyweather 0.1,2013-03-21 22:23:00,
2013-03-21 15:31:00,43.7,34.2,0.00,North,0,0.0,0.0,69,0.00,,,-99.99,pyweather 0.1,2013-03-21 22:31:00,
2013-03-21 15:39:00,43.5,34.0,0.00,North,0,0.0,0.0,69,0.00,,,-99.99,pyweather 0.1,2013-03-21 22:39:00,
2013-03-21 15:48:00,43.2,34.4,0.00,North,0,0.0,0.0,71,0.00,,,-99.99,pyweather 0.1,2013-03-21 22:48:00,
2013-03-21 15:56:00,41.4,32.7,0.00,North,0,0.0,0.0,71,0.04,,,-99.99,pyweather 0.1,2013-03-21 22:56:00,
2013-03-21 16:04:00,40.5,33.2,0.00,North,0,0.0,0.0,75,0.04,,,-99.99,pyweather 0.1,2013-03-21 23:04:00,
2013-03-21 16:12:00,40.6,34.0,0.00,North,0,0.0,0.0,77,0.04,,,-99.99,pyweather 0.1,2013-03-21 23:12:00,
2013-03-21 16:20:00,40.6,34.0,0.00,North,0,0.0,0.0,77,0.04,,,-99.99,pyweather 0.1,2013-03-21 23:20:00,
2013-03-21 16:28:00,41.4,35.0,0.00,North,0,0.0,0.0,78,0.04,,,-99.99,pyweather 0.1,2013-03-21 23:28:00,
2013-03-21 16:44:00,42.3,36.5,0.00,North,0,0.0,0.0,80,0.04,,,-99.99,pyweather 0.1,2013-03-21 23:44:00,
2013-03-21 16:52:00,42.4,36.1,0.00,North,0,0.0,0.0,78,0.00,,,-99.99,pyweather 0.1,2013-03-21 23:52:00,
2013-03-21 17:00:00,41.9,35.2,0.00,North,0,0.0,0.0,77,0.00,,,-99.99,pyweather 0.1,2013-03-22 00:00:00,
2013-03-21 17:08:00,41.2,34.5,0.00,North,0,0.0,0.0,77,0.00,,,-99.99,pyweather 0.1,2013-03-22 00:08:00,
2013-03-21 17:16:00,41.0,34.3,0.00,North,0,0.0,0.0,77,0.04,,,-99.99,pyweather 0.1,2013-03-22 00:16:00,
2013-03-21 17:24:00,41.2,34.5,0.00,North,0,0.0,0.0,77,0.04,,,-99.99,pyweather 0.1,2013-03-22 00:24:00,
2013-03-21 17:32:00,41.2,34.5,0.00,North,0,0.0,0.0,77,0.04,,,-99.99,pyweather 0.1,2013-03-22 00:32:00,
2013-03-21 17:40:00,41.2,34.8,0.00,North,0,0.0,0.0,78,0.04,,,-99.99,pyweather 0.1,2013-03-22 00:40:00,
2013-03-21 17:48:00,41.2,35.2,0.00,North,0,0.0,0.0,79,0.04,,,-99.99,pyweather 0.1,2013-03-22 00:48:00,
2013-03-21 18:04:00,40.8,35.5,0.00,North,0,0.0,0.0,81,0.04,,,-99.99,pyweather 0.1,2013-03-22 01:04:00,
2013-03-21 18:12:00,40.6,35.3,0.00,North,0,0.0,0.0,81,0.00,,,-99.99,pyweather 0.1,2013-03-22 01:12:00,
2013-03-21 18:20:00,40.8,35.8,0.00,North,0,0.0,0.0,82,0.00,,,-99.99,pyweather 0.1,2013-03-22 01:20:00,
2013-03-21 18:28:00,40.8,35.8,0.00,North,0,0.0,0.0,82,0.00,,,-99.99,pyweather 0.1,2013-03-22 01:28:00,
2013-03-21 18:36:00,40.8,36.1,0.00,North,0,0.0,0.0,83,0.00,,,-99.99,pyweather 0.1,2013-03-22 01:36:00,
2013-03-21 18:44:00,40.8,36.1,0.00,North,0,0.0,0.0,83,0.00,,,-99.99,pyweather 0.1,2013-03-22 01:44:00,
2013-03-21 18:52:00,40.6,35.9,0.00,North,0,0.0,0.0,83,0.00,,,-99.99,pyweather 0.1,2013-03-22 01:52:00,
2013-03-21 19:00:00,40.6,35.9,0.00,North,0,0.0,0.0,83,0.00,,,-99.99,pyweather 0.1,2013-03-22 02:00:00,
2013-03-21 19:08:00,40.6,35.9,0.00,North,0,0.0,0.0,83,0.00,,,-99.99,pyweather 0.1,2013-03-22 02:08:00,
2013-03-21 19:16:00,40.5,35.7,0.00,North,0,0.0,0.0,83,0.00,,,-99.99,pyweather 0.1,2013-03-22 02:16:00,
2013-03-21 19:24:00,40.3,35.5,0.00,North,0,0.0,0.0,83,0.00,,,-99.99,pyweather 0.1,2013-03-22 02:24:00,
2013-03-21 19:32:00,40.1,35.4,0.00,North,0,0.0,0.0,83,0.00,,,-99.99,pyweather 0.1,2013-03-22 02:32:00,
2013-03-21 19:40:00,39.9,35.2,0.00,North,0,0.0,0.0,83,0.00,,,-99.99,pyweather 0.1,2013-03-22 02:40:00,
2013-03-21 19:48:00,39.9,35.2,0.00,North,0,0.0,0.0,83,0.00,,,-99.99,pyweather 0.1,2013-03-22 02:48:00,
2013-03-21 19:56:00,39.6,34.8,0.00,North,0,0.0,0.0,83,0.00,,,-99.99,pyweather 0.1,2013-03-22 02:56:00,
2013-03-21 20:04:00,39.4,34.7,0.00,North,0,0.0,0.0,83,0.00,,,-99.99,pyweather 0.1,2013-03-22 03:04:00,
2013-03-21 20:12:00,39.0,34.3,0.00,North,0,0.0,0.0,83,0.00,,,-99.99,pyweather 0.1,2013-03-22 03:12:00,
2013-03-21 20:20:00,38.8,34.1,0.00,North,0,0.0,0.0,83,0.00,,,-99.99,pyweather 0.1,2013-03-22 03:20:00,
2013-03-21 20:28:00,38.7,34.0,0.00,North,0,0.0,0.0,83,0.00,,,-99.99,pyweather 0.1,2013-03-22 03:28:00,
2013-03-21 20:36:00,38.7,34.2,0.00,North,0,0.0,0.0,84,0.00,,,-99.99,pyweather 0.1,2013-03-22 03:36:00,
2013-03-21 20:44:00,38.5,34.1,0.00,North,0,0.0,0.0,84,0.00,,,-99.99,pyweather 0.1,2013-03-22 03:44:00,
2013-03-21 20:52:00,38.5,34.1,0.00,North,0,0.0,0.0,84,0.00,,,-99.99,pyweather 0.1,2013-03-22 03:52:00,
2013-03-21 21:00:00,38.1,33.7,0.00,North,0,0.0,0.0,84,0.00,,,-99.99,pyweather 0.1,2013-03-22 04:00:00,
2013-03-21 21:08:00,38.3,34.2,0.00,North,0,0.0,0.0,85,0.00,,,-99.99,pyweather 0.1,2013-03-22 04:08:00,
2013-03-21 21:16:00,38.3,34.2,0.00,North,0,0.0,0.0,85,0.00,,,-99.99,pyweather 0.1,2013-03-22 04:16:00,
2013-03-21 21:24:00,38.1,34.0,0.00,North,0,0.0,0.0,85,0.00,,,-99.99,pyweather 0.1,2013-03-22 04:24:00,
2013-03-21 21:32:00,38.1,34.0,0.00,North,0,0.0,0.0,85,0.00,,,-99.99,pyweather 0.1,2013-03-22 04:32:00,
2013-03-21 21:40:00,38.1,34.0,0.00,North,0,0.0,0.0,85,0.00,,,-99.99,pyweather 0.1,2013-03-22 04:40:00,
2013-03-21 21:48:00,37.9,33.8,0.00,North,0,0.0,0.0,85,0.00,,,-99.99,pyweather 0.1,2013-03-22 04:48:00,
2013-03-21 21:56:00,37.6,33.5,0.00,North,0,0.0,0.0,85,0.00,,,-99.99,pyweather 0.1,2013-03-22 04:56:00,
2013-03-21 22:04:00,37.6,33.5,0.00,North,0,0.0,0.0,85,0.00,,,-99.99,pyweather 0.1,2013-03-22 05:04:00,
2013-03-21 22:12:00,37.6,33.8,0.00,North,0,0.0,0.0,86,0.00,,,-99.99,pyweather 0.1,2013-03-22 05:12:00,
2013-03-21 22:20:00,37.6,33.8,0.00,North,0,0.0,0.0,86,0.00,,,-99.99,pyweather 0.1,2013-03-22 05:20:00,
2013-03-21 22:28:00,37.6,33.8,0.00,North,0,0.0,0.0,86,0.00,,,-99.99,pyweather 0.1,2013-03-22 05:28:00,
2013-03-21 22:37:00,37.6,33.8,0.00,North,0,0.0,0.0,86,0.00,,,-99.99,pyweather 0.1,2013-03-22 05:37:00,
2013-03-21 22:45:00,37.8,34.2,0.00,North,0,0.0,0.0,87,0.00,,,-99.99,pyweather 0.1,2013-03-22 05:45:00,
2013-03-21 22:53:00,37.8,34.2,0.00,North,0,0.0,0.0,87,0.00,,,-99.99,pyweather 0.1,2013-03-22 05:53:00,
2013-03-21 23:01:00,37.8,34.2,0.00,North,0,0.0,0.0,87,0.00,,,-99.99,pyweather 0.1,2013-03-22 06:01:00,
2013-03-21 23:09:00,37.9,34.4,0.00,North,0,0.0,0.0,87,0.00,,,-99.99,pyweather 0.1,2013-03-22 06:09:00,
2013-03-21 23:17:00,37.9,34.4,0.00,North,0,0.0,0.0,87,0.00,,,-99.99,pyweather 0.1,2013-03-22 06:17:00,
2013-03-21 23:25:00,37.8,34.0,0.00,North,0,0.0,0.0,86,0.00,,,-99.99,pyweather 0.1,2013-03-22 06:25:00,
2013-03-21 23:33:00,37.6,33.8,0.00,North,0,0.0,0.0,86,0.00,,,-99.99,pyweather 0.1,2013-03-22 06:33:00,
2013-03-21 23:41:00,37.6,33.8,0.00,North,0,0.0,0.0,86,0.00,,,-99.99,pyweather 0.1,2013-03-22 06:41:00,
2013-03-21 23:49:00,37.6,34.1,0.00,North,0,0.0,0.0,87,0.00,,,-99.99,pyweather 0.1,2013-03-22 06:49:00,
2013-03-21 23:57:00,37.6,34.1,0.00,North,0,0.0,0.0,87,0.00,,,-99.99,pyweather 0.1,2013-03-22 06:57:00,